Home > Weather > Knox > Past weeks

Flag for USA Weather for the Past 2 Weeks in Knox, Indiana, USA

Now
42 °F

Low clouds.


Feels Like: 34 °F
Forecast: 41 / 59 °F
Wind: 17 mph from North

Location: Porter County Municipal Airport

Current Time: May 5, 2016 at 9:17:09 AM

Latest Report: May 5, 2016 at 7:56 AM


Visibility: 10 mi

Pressure: 29.94 "Hg

Humidity: 89%

Dew Point: 39 °F

Location of KnoxLocation

Historic Weather in Knox — Graph

°F

Knox Temperature Yesterday

Maximum temperature yesterday: 55 °F (at 12:56 AM)
Minimum temperature yesterday: 40 °F (at 8:56 PM)
Average temperature yesterday: 45 °F

High & Low Weather Summary for the Past Weeks

 TemperatureHumidityPressure
High81 °F (Apr 25, 3:56 PM)100% (Apr 22, 1:56 AM)30.23 "Hg (Apr 22, 1:56 AM)
Low37 °F (Apr 23, 4:56 AM)30% (May 3, 1:56 PM)29.61 "Hg (May 4, 4:51 AM)
Average52 °F78%29.93 "Hg
* Reported Apr 20 7:56 AM — May 5 7:56 AM, Knox, Weather by CustomWeather, © 2016

Note: Actual official high and low records may vary slightly from our data, if they occured in-between our weather recording intervals... More about our weather records

Advertising

Knox Weather History for the Previous 24 Hours

Scroll right to see more
 ConditionsComfort  
Time TempWeatherWind HumidityBarometerVisibility
7:56 AM
Thu, May 5
42 °FLow clouds.17 mph89%29.94 "Hg10 mi
6:56 AM41 °FLow clouds.14 mph93%29.91 "Hg10 mi
5:56 AM41 °FLow clouds.14 mph93%29.88 "Hg10 mi
4:56 AM42 °FLow clouds.10 mph89%29.86 "Hg10 mi
3:56 AM41 °FOvercast.15 mph89%29.85 "Hg10 mi
2:56 AM41 °FOvercast.18 mph89%29.83 "Hg10 mi
1:56 AM40 °FLow clouds.20 mph89%29.82 "Hg10 mi
12:56 AM40 °FMostly cloudy.22 mph89%29.82 "Hg10 mi
11:56 PM
Wed, May 4
40 °FLight rain. Overcast.17 mph89%29.82 "Hg7 mi
10:56 PM41 °FLight rain. Overcast.18 mph82%29.82 "Hg10 mi
9:56 PM41 °FOvercast.13 mph82%29.83 "Hg10 mi
8:56 PM40 °FLight rain. Overcast.14 mph89%29.83 "Hg7 mi
7:56 PM42 °FMostly cloudy.15 mph76%29.83 "Hg10 mi
6:56 PM42 °FMostly cloudy.9 mph79%29.82 "Hg10 mi
5:56 PM43 °FLight rain. Mostly cloudy.12 mph79%29.82 "Hg8 mi
4:56 PM44 °FMore clouds than sun.10 mph71%29.81 "Hg10 mi
3:56 PM44 °FMostly cloudy.16 mph71%29.80 "Hg10 mi
2:56 PM46 °FPartly sunny.21 mph68%29.78 "Hg10 mi
1:56 PM48 °FCloudy.20 mph68%29.77 "Hg10 mi
12:56 PM47 °FMore clouds than sun.16 mph66%29.76 "Hg10 mi
11:56 AM45 °FOvercast.14 mph74%29.76 "Hg10 mi
10:56 AM45 °FOvercast.18 mph76%29.74 "Hg10 mi
9:56 AM44 °FMostly cloudy.18 mph79%29.73 "Hg10 mi
Weather by CustomWeather, © 2016

See weather overviewHow to use our weather pages